DIRECTV 9S

Last updated on Thu Oct 30 2025 00:02:47 GMT+0000 (Coordinated Universal Time)

1 29494U 06043A 25302.49673455 -.00000102 00000+0 00000+0 0 9998 2 29494 1.8205 83.7019 0002892 128.5306 263.4980 1.00272161 49072
UTC large
Height (km)
Speed (km/s)
/
Latitude / Longitude
Inclination (degrees)
Orbital Period (minutes)
Azimuth
Elevation
Range (km)
Doppler Factor

Next 0 passes for location: London (51.5072 / 0.1276)

Sorry there are no passes over London.